DW8694 Weather Reports


time (UTC)temp
C
wind
direction
speed
KPH
gust
KPH
rain 1hr
cm
rain 24hr
cm
rain mn
cm
humidity
%
barometer
mb
20260504034518 10 327 1.6 0.0 0.00 0.00 0.00 38 1012.6
20260504033013 10 337 1.6 0.0 0.00 0.00 0.00 37 1012.3
20260504031509 11 338 1.6 0.0 0.00 0.00 0.00 36 1012.0
20260504030006 11 340 3.2 0.0 0.00 0.00 0.00 34 1011.7
20260504024505 11 327 3.2 0.0 0.00 0.00 0.00 33 1011.5
20260504023004 12 346 3.2 0.0 0.00 0.00 0.00 34 1011.3
20260504021502 12 321 3.2 0.0 0.00 0.00 0.00 36 1011.2
20260504020002 12 331 3.2 0.0 0.00 0.00 0.00 39 1011.2
20260504014604 12 327 1.6 0.0 0.00 0.00 0.00 39 1011.0
20260504013059 12 330 3.2 0.0 0.00 0.00 0.00 39 1011.0
20260504011559 13 338 4.8 0.0 0.00 0.00 0.00 37 1010.9
20260504010057 13 328 4.8 0.0 0.00 0.00 0.00 34 1010.6
20260504004555 13 331 3.2 0.0 0.00 0.00 0.00 34 1010.4
20260504003053 13 328 3.2 0.0 0.00 0.00 0.00 35 1010.2
20260504001555 14 332 3.2 0.0 0.00 0.00 0.00 37 1010.0
20260504000051 14 329 1.6 0.0 0.00 0.00 0.00 38 1010.0
20260503234610 14 324 1.6 0.0 0.00 0.00 0.00 37 1009.8
20260503233051 14 337 1.6 0.0 0.00 0.00 0.00 37 1009.7
20260503231547 14 335 3.2 0.0 0.00 0.00 0.00 37 1009.5
20260503230049 15 339 3.2 0.0 0.00 0.00 0.00 35 1009.5
20260503224545 14 322 3.2 0.0 0.00 0.00 0.00 36 1009.2
20260503223043 15 330 3.2 0.0 0.00 0.00 0.00 34 1009.1
20260503221554 15 319 3.2 0.0 0.00 0.00 0.00 32 1009.0
20260503220042 15 338 3.2 0.0 0.00 0.00 0.00 32 1008.9
20260503214541 15 331 1.6 0.0 0.00 0.00 0.00 33 1008.7
20260503213043 15 325 3.2 0.0 0.00 0.00 0.00 32 1008.8
20260503211540 15 323 3.2 0.0 0.00 0.00 0.00 32 1008.8
20260503210040 15 236 3.2 0.0 0.00 0.00 0.00 32 1008.7
20260503204543 15 317 3.2 0.0 0.00 0.00 0.00 32 1008.7
20260503203053 16 325 1.6 0.0 0.00 0.00 0.00 33 1008.7
20260503201539 15 279 1.6 0.0 0.00 0.00 0.00 34 1008.7
20260503200039 15 333 3.2 0.0 0.00 0.00 0.00 33 1008.6
20260503194541 16 327 3.2 0.0 0.00 0.00 0.00 32 1008.5
20260503193038 16 5 3.2 0.0 0.00 0.00 0.00 30 1008.5
20260503191537 16 328 3.2 0.0 0.00 0.00 0.00 30 1008.3
20260503190041 16 325 3.2 0.0 0.00 0.00 0.00 30 1008.2
20260503184535 17 322 3.2 0.0 0.00 0.00 0.00 29 1008.4
20260503183034 16 342 1.6 0.0 0.00 0.00 0.00 32 1008.4
20260503181533 17 304 1.6 0.0 0.00 0.00 0.00 31 1008.2
20260503180032 16 330 3.2 0.0 0.00 0.00 0.00 32 1008.3
20260503174530 16 328 3.2 0.0 0.00 0.00 0.00 34 1008.4
20260503173030 16 334 3.2 0.0 0.00 0.00 0.00 34 1008.3
20260503171529 16 334 3.2 0.0 0.00 0.00 0.00 33 1008.2
20260503140109 13 224 1.6 0.0 0.00 0.00 0.00 47 1007.6
20260503081516 12 233 0.0 0.0 0.00 0.00 0.00 40 1008.4
20260503071513 13 225 0.0 0.0 0.00 0.00 0.00 40 1008.9
20260503054602 12 231 0.0 0.0 0.00 0.00 0.00 45 1008.6
20260503053059 13 231 0.0 0.0 0.00 0.00 0.00 45 1008.4
20260503051558 12 231 0.0 0.0 0.00 0.00 0.00 45 1008.5
20260503050057 12 231 0.0 0.0 0.00 0.00 0.00 45 1008.5
20260503044557 12 231 0.0 0.0 0.00 0.00 0.00 43 1008.5
20260503043056 13 231 0.0 0.0 0.00 0.00 0.00 40 1008.3
20260503041556 14 231 0.0 0.0 0.00 0.00 0.00 38 1008.1
20260503040111 15 231 0.0 0.0 0.00 0.00 0.00 35 1008.3